WN4MDN Weather Reports


Display with metric or nautical units.
time (UTC)temp
F
wind
direction
speed
MPH
gust
MPH
rain 1hr
in
rain 24hr
in
rain mn
in
humidity
%
barometer
mb
20240522144035 82 76 6.0 11.0 0.00 0.00 0.00 71 1016.6
20240522143534 83 59 6.0 11.0 0.00 0.00 0.00 71 1016.5
20240522143040 82 131 5.0 11.0 0.00 0.00 0.00 72 1016.6
20240522142537 82 53 6.0 11.0 0.00 0.00 0.00 72 1016.5
20240522142035 81 115 4.0 10.0 0.00 0.00 0.00 72 1016.3
20240522141546 81 67 4.0 10.0 0.00 0.00 0.00 72 1016.5
20240522141035 81 71 4.0 13.0 0.00 0.00 0.00 73 1016.6
20240522140534 81 65 5.0 13.0 0.00 0.00 0.00 73 1016.4
20240522140044 81 105 5.0 13.0 0.00 0.00 0.00 73 1016.4
20240522135535 81 35 6.0 12.0 0.00 0.00 0.00 73 1016.3
20240522135035 80 61 7.0 11.0 0.00 0.00 0.00 74 1016.4
20240522134543 79 94 6.0 11.0 0.00 0.00 0.00 75 1016.4
20240522134034 79 355 4.0 9.0 0.00 0.00 0.00 76 1016.5
20240522133535 80 46 5.0 9.0 0.00 0.00 0.00 75 1016.5
20240522133039 80 86 4.0 12.0 0.00 0.00 0.00 75 1016.3
20240522132534 80 77 5.0 12.0 0.00 0.00 0.00 76 1016.3
20240522132036 79 80 5.0 10.0 0.00 0.00 0.00 76 1016.4
20240522131546 79 62 4.0 7.0 0.00 0.00 0.00 78 1016.4
20240522131034 79 82 4.0 9.0 0.00 0.00 0.00 78 1016.4
20240522130537 79 23 3.0 9.0 0.00 0.00 0.00 78 1016.4
20240522130041 79 5 3.0 7.0 0.00 0.00 0.00 78 1016.4
20240522125534 78 53 3.0 7.0 0.00 0.00 0.00 80 1016.4
20240522125035 78 47 3.0 7.0 0.00 0.00 0.00 81 1016.2
20240522124544 77 34 3.0 6.0 0.00 0.00 0.00 82 1016.2
20240522124034 77 54 4.0 6.0 0.00 0.00 0.00 83 1016.2
20240522123537 76 81 2.0 5.0 0.00 0.00 0.00 86 1016.2
20240522123056 76 22 2.0 5.0 0.00 0.00 0.00 87 1016.1
20240522122536 75 45 3.0 5.0 0.00 0.00 0.00 89 1016.0
20240522122035 74 48 2.0 5.0 0.00 0.00 0.00 91 1016.0
20240522121550 74 44 1.0 4.0 0.00 0.00 0.00 92 1015.9
20240522121039 73 38 1.0 4.0 0.00 0.00 0.00 93 1015.8
20240522120534 73 0 1.0 4.0 0.00 0.00 0.00 94 1015.7
20240522120053 73 5 0.0 3.0 0.00 0.00 0.00 94 1015.7
20240522115538 72 56 0.0 2.0 0.00 0.00 0.00 94 1015.6
20240522115035 72 101 0.0 1.0 0.00 0.00 0.00 94 1015.6
20240522114551 71 0 0.0 1.0 0.00 0.00 0.00 94 1015.4
20240522114034 71 0 0.0 1.0 0.00 0.00 0.00 94 1015.4
20240522113534 70 0 0.0 0.0 0.00 0.00 0.00 94 1015.4
20240522113053 70 0 0.0 0.0 0.00 0.00 0.00 94 1015.4
20240522112538 70 0 0.0 0.0 0.00 0.00 0.00 94 1015.3
20240522112036 69 0 0.0 0.0 0.00 0.00 0.00 94 1015.4
20240522111558 69 0 0.0 0.0 0.00 0.00 0.00 94 1015.2
20240522111036 69 0 0.0 0.0 0.00 0.00 0.00 94 1015.0
20240522110533 69 0 0.0 0.0 0.00 0.00 0.00 94 1015.1
20240522110049 69 0 0.0 0.0 0.00 0.00 0.00 94 1014.9
20240522105535 69 0 0.0 0.0 0.00 0.00 0.00 94 1014.6
20240522105035 69 0 0.0 0.0 0.00 0.00 0.00 94 1014.5
20240522104540 69 0 0.0 1.0 0.00 0.00 0.00 94 1014.5
20240522104036 69 0 0.0 1.0 0.00 0.00 0.00 94 1014.4
20240522103533 69 0 0.0 2.0 0.00 0.00 0.00 94 1014.4
20240522103045 69 0 0.0 3.0 0.00 0.00 0.00 94 1014.2
20240522102534 69 5 1.0 3.0 0.00 0.00 0.00 94 1014.2
20240522102034 69 0 1.0 3.0 0.00 0.00 0.00 94 1014.2
20240522101551 69 344 2.0 3.0 0.00 0.00 0.00 94 1014.1
20240522101032 68 342 1.0 2.0 0.00 0.00 0.00 94 1014.2
20240522100534 68 318 1.0 2.0 0.00 0.00 0.00 94 1014.2
20240522100038 69 318 1.0 2.0 0.00 0.00 0.00 94 1014.3
20240522095534 68 332 0.0 2.0 0.00 0.00 0.00 94 1014.2
20240522095037 68 0 0.0 0.0 0.00 0.00 0.00 94 1014.1
20240522094548 68 0 0.0 0.0 0.00 0.00 0.00 94 1014.2
20240522094035 68 0 0.0 0.0 0.00 0.00 0.00 94 1014.1
20240522093536 68 0 0.0 2.0 0.00 0.00 0.00 94 1014.1
20240522093044 68 0 0.0 2.0 0.00 0.00 0.00 94 1013.9
20240522092535 68 332 1.0 2.0 0.00 0.00 0.00 94 1013.8
20240522092035 68 0 0.0 0.0 0.00 0.00 0.00 93 1013.9
20240522091546 68 0 0.0 0.0 0.00 0.00 0.00 93 1013.9
20240522091035 68 0 0.0 0.0 0.00 0.00 0.00 94 1013.9
20240522090534 68 0 0.0 0.0 0.00 0.00 0.00 94 1013.9
20240522090037 68 0 0.0 1.0 0.00 0.00 0.00 94 1013.9
20240522085535 68 0 0.0 2.0 0.00 0.00 0.00 93 1013.9
20240522085034 68 0 0.0 3.0 0.00 0.00 0.00 93 1013.8
20240522084537 68 319 1.0 3.0 0.00 0.00 0.00 94 1013.8
20240522084034 68 319 2.0 3.0 0.00 0.00 0.00 93 1013.8
20240522083535 68 346 1.0 3.0 0.00 0.00 0.00 93 1013.8
20240522083038 67 0 0.0 2.0 0.00 0.00 0.00 93 1013.9
20240522082534 68 360 0.0 3.0 0.00 0.00 0.00 93 1013.7
20240522082032 67 360 1.0 3.0 0.00 0.00 0.00 93 1013.5
20240522081541 67 316 1.0 3.0 0.00 0.00 0.00 93 1013.7
20240522081036 67 317 1.0 3.0 0.00 0.00 0.00 93 1013.7
20240522080536 67 316 0.0 2.0 0.00 0.00 0.00 93 1013.6
20240522080035 67 0 0.0 2.0 0.00 0.00 0.00 93 1013.7
20240522075535 67 317 1.0 2.0 0.00 0.00 0.00 93 1013.6
20240522075035 67 291 1.0 2.0 0.00 0.00 0.00 93 1013.6
20240522074556 67 291 0.0 2.0 0.00 0.00 0.00 93 1013.5
20240522074034 67 0 0.0 0.0 0.00 0.00 0.00 93 1013.4
20240522073537 67 0 0.0 0.0 0.00 0.00 0.00 93 1013.4
20240522073038 67 0 0.0 0.0 0.00 0.00 0.00 93 1013.4
20240522072535 67 0 0.0 0.0 0.00 0.00 0.00 93 1013.4
20240522072034 67 0 0.0 0.0 0.00 0.00 0.00 93 1013.5
20240522071553 67 0 0.0 0.0 0.00 0.00 0.00 93 1013.5
20240522071035 67 0 0.0 0.0 0.00 0.00 0.00 93 1013.6
20240522070534 67 0 0.0 0.0 0.00 0.00 0.00 93 1013.7
20240522070042 67 0 0.0 0.0 0.00 0.00 0.00 92 1013.8
20240522065534 67 0 0.0 0.0 0.00 0.00 0.00 92 1013.8
20240522065034 67 0 0.0 0.0 0.00 0.00 0.00 92 1013.8
20240522064541 67 0 0.0 0.0 0.00 0.00 0.00 92 1013.6
20240522064037 67 0 0.0 0.0 0.00 0.00 0.00 92 1013.6
20240522063534 68 0 0.0 0.0 0.00 0.00 0.00 92 1013.7
20240522063051 68 0 0.0 0.0 0.00 0.00 0.00 93 1013.8
20240522062537 68 0 0.0 0.0 0.00 0.00 0.00 92 1013.9
20240522062035 68 0 0.0 0.0 0.00 0.00 0.00 92 1013.9
20240522061542 68 0 0.0 1.0 0.00 0.00 0.00 92 1013.9
20240522061034 68 0 0.0 2.0 0.00 0.00 0.00 92 1013.9
20240522060534 68 0 0.0 2.0 0.00 0.00 0.00 92 1013.8
20240522060043 68 0 0.0 1.0 0.00 0.00 0.00 92 1014.0
20240522055537 68 0 0.0 1.0 0.00 0.00 0.00 92 1014.1
20240522055035 68 0 0.0 3.0 0.00 0.00 0.00 92 1014.1
20240522054536 68 0 0.0 3.0 0.00 0.00 0.00 92 1014.1
20240522054035 68 190 1.0 3.0 0.00 0.00 0.00 92 1014.0
20240522053535 68 186 1.0 3.0 0.00 0.00 0.00 92 1014.0
20240522053040 68 0 0.0 2.0 0.00 0.00 0.00 92 1014.0
20240522052534 68 0 0.0 2.0 0.00 0.00 0.00 92 1014.1
20240522052035 69 149 1.0 2.0 0.00 0.00 0.00 92 1014.1
20240522051600 69 0 0.0 2.0 0.00 0.00 0.00 92 1014.2
20240522051035 69 49 0.0 2.0 0.00 0.00 0.00 92 1014.3
20240522050534 69 0 0.0 1.0 0.00 0.00 0.00 92 1014.3
20240522050047 69 0 0.0 0.0 0.00 0.00 0.00 92 1014.4
20240522045534 69 0 0.0 0.0 0.00 0.00 0.00 92 1014.3
20240522045034 69 0 0.0 3.0 0.00 0.00 0.00 91 1014.2
20240522044543 69 0 0.0 3.0 0.00 0.00 0.00 91 1014.3
20240522044035 69 179 2.0 4.0 0.00 0.00 0.00 91 1014.4
20240522043534 69 182 2.0 4.0 0.00 0.00 0.00 91 1014.4
20240522043040 69 5 2.0 3.0 0.00 0.00 0.00 91 1014.4
20240522042534 70 0 0.0 0.0 0.00 0.00 0.00 91 1014.5
20240522042034 70 0 0.0 0.0 0.00 0.00 0.00 91 1014.5
20240522041554 69 0 0.0 0.0 0.00 0.00 0.00 90 1014.6
20240522041034 70 0 0.0 0.0 0.00 0.00 0.00 90 1014.6
20240522040535 70 0 0.0 0.0 0.00 0.00 0.00 90 1014.5
20240522040045 70 0 0.0 0.0 0.00 0.00 0.00 89 1014.5
20240522035534 70 0 0.0 0.0 0.00 0.00 0.00 89 1014.4
20240522035034 70 0 0.0 0.0 0.00 0.00 0.00 88 1014.4
20240522034540 70 0 0.0 0.0 0.00 0.00 0.00 88 1014.5
20240522034034 71 0 0.0 0.0 0.00 0.00 0.00 88 1014.4
20240522033535 71 0 0.0 0.0 0.00 0.00 0.00 88 1014.4
20240522033034 71 0 0.0 0.0 0.00 0.00 0.00 88 1014.3
20240522032535 71 0 0.0 0.0 0.00 0.00 0.00 88 1014.2
20240522032035 72 0 0.0 0.0 0.00 0.00 0.00 87 1014.2
20240522031548 72 0 0.0 0.0 0.00 0.00 0.00 87 1014.1
20240522031034 72 0 0.0 1.0 0.00 0.00 0.00 87 1014.1
20240522030536 72 0 0.0 2.0 0.00 0.00 0.00 87 1014.2
20240522030044 72 5 0.0 3.0 0.00 0.00 0.00 87 1014.1
20240522025535 72 5 1.0 3.0 0.00 0.00 0.00 87 1014.1
20240522025034 72 5 1.0 2.0 0.00 0.00 0.00 87 1014.1
20240522024541 72 36 1.0 2.0 0.00 0.00 0.00 87 1014.0
20240522024037 72 0 0.0 3.0 0.00 0.00 0.00 86 1014.1
20240522023534 73 68 1.0 3.0 0.00 0.00 0.00 86 1014.0
20240522023044 73 68 1.0 3.0 0.00 0.00 0.00 86 1014.0
20240522022534 73 59 2.0 3.0 0.00 0.00 0.00 86 1014.0
20240522022038 73 63 2.0 3.0 0.00 0.00 0.00 86 1014.0
20240522021548 73 81 0.0 2.0 0.00 0.00 0.00 85 1014.0
20240522021033 73 0 0.0 3.0 0.00 0.00 0.00 85 1014.1
20240522020535 73 81 1.0 3.0 0.00 0.00 0.00 85 1013.8
20240522020042 73 81 2.0 3.0 0.00 0.00 0.00 85 1013.6
20240522015535 73 81 2.0 3.0 0.00 0.00 0.00 84 1013.7
20240522015035 73 85 2.0 3.0 0.00 0.00 0.00 84 1013.7
20240522014541 73 85 1.0 3.0 0.00 0.00 0.00 83 1013.6
20240522014035 74 0 0.0 1.0 0.00 0.00 0.00 83 1013.6
20240522013537 74 0 0.0 1.0 0.00 0.00 0.00 82 1013.6
20240522013107 74 0 0.0 2.0 0.00 0.00 0.00 82 1013.6
20240522012534 74 0 0.0 3.0 0.00 0.00 0.00 82 1013.5
20240522012035 74 85 1.0 3.0 0.00 0.00 0.00 82 1013.6
20240522011549 74 58 1.0 5.0 0.00 0.00 0.00 82 1013.5
20240522011035 75 50 2.0 5.0 0.00 0.00 0.00 82 1013.4
20240522010537 75 49 3.0 5.0 0.00 0.00 0.00 81 1013.4
20240522010053 75 66 3.0 5.0 0.00 0.00 0.00 81 1013.4
20240522005534 75 57 3.0 4.0 0.00 0.00 0.00 81 1013.4
20240522005034 75 67 3.0 4.0 0.00 0.00 0.00 80 1013.4
20240522004540 76 72 2.0 4.0 0.00 0.00 0.00 80 1013.4
20240522004035 76 66 2.0 4.0 0.00 0.00 0.00 80 1013.4
20240522003534 76 61 2.0 5.0 0.00 0.00 0.00 80 1013.4
20240522003042 76 50 2.0 6.0 0.00 0.00 0.00 79 1013.3
20240522002535 76 49 3.0 6.0 0.00 0.00 0.00 79 1013.2
20240522002036 76 61 3.0 6.0 0.00 0.00 0.00 80 1013.2
20240522001542 77 59 3.0 6.0 0.00 0.00 0.00 79 1013.1
20240522001035 77 69 2.0 7.0 0.00 0.00 0.00 80 1013.2
20240522000535 77 31 3.0 8.0 0.00 0.00 0.00 80 1013.2
20240522000046 77 45 5.0 8.0 0.00 0.00 0.00 79 1013.2
20240521235534 78 52 4.0 10.0 0.00 0.00 0.00 78 1013.2
20240521235038 78 50 4.0 11.0 0.00 0.00 0.00 78 1013.1
20240521234541 78 63 5.0 11.0 0.00 0.00 0.00 78 1013.2
20240521234036 78 57 5.0 10.0 0.00 0.00 0.00 78 1013.1
20240521233533 78 51 4.0 10.0 0.00 0.00 0.00 78 1013.0
20240521233039 79 50 5.0 10.0 0.00 0.00 0.00 76 1013.0
20240521232534 79 74 3.0 9.0 0.00 0.00 0.00 76 1012.9
20240521232033 79 50 4.0 10.0 0.00 0.00 0.00 75 1012.9
20240521231543 80 64 5.0 11.0 0.00 0.00 0.00 74 1012.9
20240521231035 80 76 6.0 12.0 0.00 0.00 0.00 73 1012.9
20240521230534 80 72 6.0 12.0 0.00 0.00 0.00 73 1012.9
20240521230044 80 57 6.0 13.0 0.00 0.00 0.00 73 1012.7
20240521225535 80 33 7.0 14.0 0.00 0.00 0.00 71 1012.7
20240521225035 80 58 8.0 14.0 0.00 0.00 0.00 71 1012.7
20240521224543 81 60 7.0 13.0 0.00 0.00 0.00 71 1012.6
20240521224037 81 71 9.0 13.0 0.00 0.00 0.00 70 1012.5
20240521223535 81 63 8.0 13.0 0.00 0.00 0.00 70 1012.6
20240521223036 81 74 8.0 12.0 0.00 0.00 0.00 70 1012.7
20240521222536 81 33 7.0 13.0 0.00 0.00 0.00 69 1012.7
20240521222034 81 57 7.0 14.0 0.00 0.00 0.00 68 1012.6
20240521221538 82 84 8.0 14.0 0.00 0.00 0.00 69 1012.4
20240521221034 83 24 8.0 15.0 0.00 0.00 0.00 67 1012.5
20240521220535 82 87 5.0 15.0 0.00 0.00 0.00 69 1012.4
20240521220046 82 70 10.0 15.0 0.00 0.00 0.00 67 1012.4
20240521215535 83 39 10.0 14.0 0.00 0.00 0.00 67 1012.3
20240521215034 83 74 10.0 17.0 0.00 0.00 0.00 67 1012.3
20240521214539 83 44 10.0 17.0 0.00 0.00 0.00 66 1012.3
20240521214035 84 98 9.0 16.0 0.00 0.00 0.00 67 1012.3
20240521213538 84 79 9.0 16.0 0.00 0.00 0.00 67 1012.3
20240521213042 84 63 11.0 16.0 0.00 0.00 0.00 65 1012.2
20240521212536 84 74 10.0 16.0 0.00 0.00 0.00 64 1012.2
20240521212037 84 91 10.0 16.0 0.00 0.00 0.00 65 1012.2
20240521211540 84 67 10.0 15.0 0.00 0.00 0.00 64 1012.1
20240521211036 84 82 10.0 14.0 0.00 0.00 0.00 65 1012.1
20240521210534 85 76 8.0 15.0 0.00 0.00 0.00 64 1012.1
20240521210045 85 90 10.0 17.0 0.00 0.00 0.00 63 1012.0
20240521205535 85 67 9.0 17.0 0.00 0.00 0.00 63 1011.8
20240521205034 85 94 9.0 17.0 0.00 0.00 0.00 63 1011.8
20240521204546 85 77 8.0 17.0 0.00 0.00 0.00 64 1011.9
20240521204038 85 69 9.0 17.0 0.00 0.00 0.00 64 1012.0
20240521203535 85 26 10.0 17.0 0.00 0.00 0.00 63 1012.0
20240521203107 85 46 10.0 17.0 0.00 0.00 0.00 64 1012.0
20240521202535 85 46 11.0 17.0 0.00 0.00 0.00 66 1012.0
20240521202035 85 9 8.0 18.0 0.00 0.00 0.00 66 1012.0
20240521201547 85 34 9.0 19.0 0.00 0.00 0.00 65 1012.0
20240521201034 85 46 10.0 19.0 0.00 0.00 0.00 65 1012.2
20240521200539 85 53 10.0 19.0 0.00 0.00 0.00 64 1012.1
20240521200053 85 61 10.0 17.0 0.00 0.00 0.00 65 1011.9
20240521195533 85 53 9.0 16.0 0.00 0.00 0.00 66 1011.8
20240521195035 85 18 11.0 16.0 0.00 0.00 0.00 66 1011.9
20240521194615 85 59 7.0 15.0 0.00 0.00 0.00 69 1011.9
20240521194036 84 30 8.0 15.0 0.00 0.00 0.00 69 1012.0
20240521193536 83 33 9.0 15.0 0.00 0.00 0.00 69 1012.1
20240521193101 83 38 9.0 15.0 0.00 0.00 0.00 68 1012.1
20240521192534 84 42 9.0 15.0 0.00 0.00 0.00 67 1012.2
20240521192035 85 58 7.0 13.0 0.00 0.00 0.00 66 1012.1
20240521191546 86 80 6.0 11.0 0.00 0.00 0.00 66 1012.2
20240521191034 86 95 5.0 13.0 0.00 0.00 0.00 66 1012.2
20240521190534 85 83 6.0 14.0 0.00 0.00 0.00 67 1012.2
20240521190046 85 30 8.0 14.0 0.00 0.00 0.00 65 1012.3
20240521185535 85 25 7.0 14.0 0.00 0.00 0.00 65 1012.3
20240521185034 86 36 5.0 12.0 0.00 0.00 0.00 63 1012.3
20240521184547 87 339 5.0 14.0 0.00 0.00 0.00 55 1012.4
20240521184035 87 355 7.0 14.0 0.00 0.00 0.00 57 1012.4
20240521183535 87 308 7.0 14.0 0.00 0.00 0.00 55 1012.3
20240521183043 86 360 3.0 11.0 0.00 0.00 0.00 56 1012.4
20240521182533 86 42 5.0 11.0 0.00 0.00 0.00 54 1012.4
20240521182037 86 151 5.0 14.0 0.00 0.00 0.00 55 1012.4
20240521181550 87 326 5.0 14.0 0.00 0.00 0.00 54 1012.4
20240521181035 86 331 8.0 14.0 0.00 0.00 0.00 57 1012.4
20240521180534 86 291 6.0 14.0 0.00 0.00 0.00 58 1012.5
20240521180043 86 342 9.0 14.0 0.00 0.00 0.00 57 1012.6
20240521175534 86 315 8.0 14.0 0.00 0.00 0.00 55 1012.6
20240521175034 86 331 4.0 13.0 0.00 0.00 0.00 58 1012.6
20240521174540 86 346 8.0 13.0 0.00 0.00 0.00 57 1012.5
20240521174034 86 301 4.0 12.0 0.00 0.00 0.00 59 1012.5
20240521173534 85 5 6.0 13.0 0.00 0.00 0.00 58 1012.6
20240521173039 85 55 6.0 13.0 0.00 0.00 0.00 58 1012.6
20240521172536 85 53 6.0 12.0 0.00 0.00 0.00 57 1012.6
20240521172034 85 5 3.0 13.0 0.00 0.00 0.00 57 1012.8
20240521171543 85 34 8.0 13.0 0.00 0.00 0.00 57 1012.7
20240521171036 85 360 5.0 15.0 0.00 0.00 0.00 58 1012.8
20240521170536 85 346 6.0 15.0 0.00 0.00 0.00 57 1012.8
20240521170037 84 333 4.0 13.0 0.00 0.00 0.00 57 1012.8
20240521165535 84 317 6.0 13.0 0.00 0.00 0.00 59 1012.9
20240521165034 84 317 5.0 14.0 0.00 0.00 0.00 56 1012.9
20240521164540 84 305 6.0 14.0 0.00 0.00 0.00 59 1013.1
20240521164033 84 321 6.0 14.0 0.00 0.00 0.00 61 1013.2
20240521163535 84 50 6.0 11.0 0.00 0.00 0.00 62 1013.4
20240521163037 84 24 5.0 12.0 0.00 0.00 0.00 61 1013.4
20240521162534 84 323 3.0 12.0 0.00 0.00 0.00 62 1013.3
20240521162035 84 304 6.0 12.0 0.00 0.00 0.00 65 1013.4
20240521161556 84 50 2.0 11.0 0.00 0.00 0.00 67 1013.3
20240521161034 84 307 7.0 11.0 0.00 0.00 0.00 66 1013.5
20240521160535 83 302 5.0 11.0 0.00 0.00 0.00 66 1013.5
20240521160046 82 18 4.0 11.0 0.00 0.00 0.00 69 1013.6
20240521155534 82 346 5.0 11.0 0.00 0.00 0.00 67 1013.5
20240521155034 82 340 3.0 11.0 0.00 0.00 0.00 70 1013.6
20240521154553 82 38 4.0 11.0 0.00 0.00 0.00 71 1013.5
20240521154034 82 5 5.0 11.0 0.00 0.00 0.00 68 1013.5
20240521153534 82 348 3.0 10.0 0.00 0.00 0.00 70 1013.6
20240521153035 82 288 6.0 10.0 0.00 0.00 0.00 71 1013.6
20240521152534 82 332 4.0 10.0 0.00 0.00 0.00 71 1013.5
20240521152034 81 333 2.0 9.0 0.00 0.00 0.00 73 1013.5
20240521151542 81 38 4.0 9.0 0.00 0.00 0.00 72 1013.5
20240521151035 81 290 4.0 9.0 0.00 0.00 0.00 72 1013.5
20240521150534 81 321 2.0 11.0 0.00 0.00 0.00 73 1013.5
20240521150058 81 329 6.0 11.0 0.00 0.00 0.00 73 1013.5
20240521145534 81 298 1.0 9.0 0.00 0.00 0.00 74 1013.5
20240521145034 80 53 3.0 10.0 0.00 0.00 0.00 75 1013.6
20240521144538 80 304 4.0 10.0 0.00 0.00 0.00 76 1013.6